sat.trackr.live / text

‹ back to catalog

STARLINK-5598

NORAD 55421 · 2023-014AG

PAYLOAD ACTIVE UNKNOWN

§ Identity

Operator
Country
US
Launch date
2023-01-31
Launch site
AFWTR
Launch vehicle
Mass (kg)
RCS (m²)

Purposes: comms

External: N2YO · Heavens-Above · Gunter

§ Orbital elements

Epoch: 2026-05-25T00:05:07.953792Z

Period
96.11 min
Inclination
69.9993°
Eccentricity
0.0003085
Mean motion
14.98332476 rev/d
Perigee alt
569.9 km
Apogee alt
574.2 km
Semi-major
6,950.2 km
B*
3.2413e-5
RAAN
252.0220°
Arg perigee
266.8779°
Mean anomaly
93.2027°
Rev number
18,299

§ Raw data

STARLINK-55981 55421U 23014AG  26145.00356428  .00000294  00000+0  32413-4 0  99942 55421  69.9993 252.0220 0003085 266.8779  93.2027 14.98332476182997

JSON: /api/v1/satellites/55421 · /tle

For live sub-satellite position, see the globe view (requires WebGL).

§ Visibility from observer

Set your observer location to see the next 7 days of passes ≥ 10°. The values pass through the URL so the page stays shareable.

No JS? Fill the form by hand. The geolocation button needs JavaScript.